GFSNW_850_spd_000.txt.gz
Wind_Speed
1 1 3 7 11 5 3 3 4 3 4 3 3 2 2 3 3 6 5 5 4 4 4 4 3 2 3 1 1 2 3 4 3 5 8 2 2 3 5 3 5 3 3 11
3 1 1 4 8 9 7 4 4 5 5 3 2 2 4 7 4 6 4 3 4 4 3 3 4 2 3 3 2 3 1 2 3 7 6 8 4 7 4 3 2 6 3 5
6 4 2 1 4 7 6 2 3 5 8 4 6 4 2 3 6 5 5 2 4 5 4 5 2 6 4 2 2 5 4 3 6 5 5 3 9 15 11 4 2 5 13 15
8 6 4 3 2 4 5 4 2 2 2 6 8 4 1 4 2 3 4 5 5 3 2 4 3 3 5 8 2 0 3 5 4 7 7 5 15 17 16 9 14 5 8 9
9 7 5 5 5 5 7 4 3 4 5 4 6 6 3 2 4 3 3 5 3 7 3 3 2 1 0 5 3 2 3 4 4 10 6 8 17 14 12 13 13 9 9 14
10 8 7 6 6 6 5 8 7 3 3 3 4 2 2 2 6 4 8 6 4 4 1 4 5 7 8 14 6 4 2 3 2 5 4 4 10 8 6 5 7 7 6 6
11 9 7 6 6 6 8 9 7 4 2 2 2 2 4 4 4 4 3 3 5 4 2 5 9 15 17 14 17 13 5 3 2 3 1 4 9 6 7 6 7 6 3 5
12 10 8 7 7 7 7 8 6 4 1 2 2 1 2 3 2 1 1 2 1 2 3 4 6 5 7 5 5 2 8 5 1 1 3 6 10 10 2 2 8 5 5 8
14 11 9 8 7 7 8 7 8 5 8 5 4 1 1 2 1 4 3 4 6 3 6 4 2 2 4 5 5 6 6 5 3 2 3 6 8 5 7 5 6 9 8 12
15 13 11 10 9 9 9 8 8 7 5 6 5 3 4 4 4 3 2 4 5 3 3 3 4 4 2 3 4 3 3 2 3 2 6 8 9 12 1 4 7 10 22 25
17 15 12 11 10 10 10 10 8 9 5 7 5 7 7 6 5 4 4 3 1 4 3 3 4 4 5 1 4 5 5 3 5 2 3 8 5 4 3 9 16 30 34 28
18 17 15 13 11 10 10 10 10 9 7 5 8 11 14 15 12 7 6 4 5 8 3 2 2 3 2 4 5 2 3 7 5 8 7 5 7 22 25 24 33 29 18 13
22 21 18 16 14 12 11 11 9 8 8 14 19 18 18 17 16 13 8 9 13 10 15 7 4 4 3 5 5 3 4 10 6 7 8 17 26 41 39 31 22 14 14 13
25 24 22 20 18 16 16 14 12 12 4 4 12 17 23 25 19 17 18 23 21 21 19 10 3 3 12 5 5 7 9 8 5 13 22 32 29 28 23 20 9 12 8 13
26 26 22 21 22 19 18 18 18 16 11 3 5 10 9 8 9 11 13 15 20 25 17 6 4 6 5 5 2 4 12 14 7 14 27 22 27 18 15 12 9 5 12 22
28 26 24 25 23 21 18 12 23 23 21 6 1 9 18 21 22 24 27 27 24 26 12 7 9 22 11 3 4 9 19 24 34 28 35 31 22 10 12 10 9 9 15 20
25 26 24 23 23 23 22 6 4 11 22 4 6 5 5 13 17 19 21 23 21 17 17 9 12 14 10 2 11 36 27 28 35 33 31 17 5 7 11 12 13 15 23 21
20 21 22 21 20 23 28 29 23 20 14 7 3 2 4 3 2 3 4 4 5 8 7 3 4 4 6 4 22 24 27 27 20 10 2 2 5 5 11 16 19 19 19 23
14 17 19 20 21 14 19 21 19 24 15 5 5 4 3 6 6 4 2 3 2 4 2 3 3 1 5 8 16 22 26 17 8 5 7 3 9 14 18 21 20 19 24 28
14 16 9 5 5 10 7 6 7 13 10 9 6 5 3 9 9 3 1 1 2 2 3 3 2 5 21 33 35 35 26 6 3 10 7 2 9 17 22 24 24 24 27 30
15 8 5 10 16 8 6 5 6 5 2 5 5 14 3 6 3 2 4 1 0 2 4 3 2 3 9 15 9 4 4 3 7 5 5 8 14 20 23 26 25 25 26 25
6 7 14 13 4 3 1 2 2 3 4 6 5 4 3 4 4 3 4 2 1 5 2 0 3 3 16 5 6 5 5 4 2 13 20 18 19 26 25 23 24 24 23 24
12 4 5 4 3 3 5 6 3 3 3 7 6 3 3 4 3 3 2 3 5 0 0 3 4 9 11 8 8 10 11 16 21 23 21 22 24 29 24 24 21 20 23 24
3 5 3 4 3 3 3 3 3 3 4 9 11 6 3 2 2 2 3 4 2 2 3 5 2 11 13 14 15 19 20 20 20 21 23 27 29 32 29 29 28 26 28 31
3 4 3 4 3 3 3 4 6 7 12 11 7 4 2 1 2 1 2 3 3 4 4 3 6 9 13 14 16 16 22 27 28 27 29 32 35 35 32 30 33 30 31 30
2 3 2 3 5 4 4 4 5 8 11 10 3 2 3 3 3 2 6 5 6 4 3 5 10 14 15 16 19 22 31 31 30 31 32 34 35 36 31 32 34 30 31 27
3 2 4 5 2 5 7 9 9 11 9 2 3 4 10 1 2 2 4 5 4 4 13 19 16 16 23 30 31 28 28 31 32 33 34 34 34 32 34 35 31 29 28 24

GFSNW_850_spd_003.txt.gz
Wind_Speed
2 2 4 10 8 5 4 3 4 4 2 4 3 2 2 3 5 9 6 4 3 3 3 4 3 2 2 0 2 2 2 3 3 3 7 4 4 6 4 3 5 3 3 6
4 1 2 5 8 7 6 4 4 7 3 3 2 1 4 5 4 5 3 3 4 5 2 3 2 2 4 4 3 1 2 2 3 7 6 3 3 3 3 3 3 6 3 5
6 3 1 2 5 5 5 3 3 6 7 7 6 4 2 3 5 5 6 4 6 4 5 6 2 5 5 9 4 1 2 2 5 5 5 4 7 5 3 5 3 4 10 16
7 6 4 2 2 3 4 3 2 2 1 5 5 4 2 3 2 3 7 6 4 3 3 3 2 3 5 5 3 3 3 2 3 5 7 5 13 12 16 7 10 6 8 8
8 7 5 4 3 3 3 3 5 5 4 2 4 5 1 4 2 3 2 6 1 4 4 4 2 1 1 5 3 3 2 3 3 5 6 8 14 14 10 13 10 8 9 10
10 8 7 6 5 5 2 6 8 4 3 3 4 2 1 2 5 5 5 11 4 2 4 4 6 9 9 10 5 4 2 4 2 5 4 8 7 7 4 4 5 5 5 7
12 10 8 7 6 7 6 10 8 4 2 2 4 2 5 3 2 6 4 4 4 3 2 3 7 12 14 11 13 13 6 4 2 3 1 3 10 3 7 10 10 7 6 6
13 11 10 9 8 8 8 10 6 3 1 2 2 6 6 5 4 3 4 2 3 5 2 4 6 5 7 4 6 2 6 5 3 3 3 6 9 9 2 5 7 4 6 5
15 13 12 10 9 9 8 8 8 4 8 5 5 5 5 4 3 2 2 4 6 3 5 4 3 2 4 5 6 7 6 5 3 2 4 6 8 4 4 1 7 5 4 11
16 15 13 12 11 11 11 10 10 7 5 6 9 4 5 6 4 3 1 4 3 2 2 2 3 4 4 3 3 4 2 1 4 4 6 9 10 9 2 3 4 10 17 24
17 16 14 13 12 11 11 10 10 10 4 8 10 9 8 8 6 4 6 3 1 4 2 3 4 3 5 1 4 5 5 3 5 2 4 8 3 3 5 12 22 27 25 20
19 18 15 13 11 11 11 10 10 9 7 4 13 12 10 10 8 8 11 4 5 9 4 1 2 3 2 3 5 2 3 8 4 8 6 6 7 14 30 20 26 19 13 13
21 20 18 16 13 11 11 10 9 9 8 10 15 15 14 12 10 10 7 9 10 8 10 8 3 4 4 4 5 3 4 13 3 5 10 22 22 36 38 30 13 8 4 3
22 21 19 18 15 13 12 11 10 10 3 2 8 11 12 12 13 15 16 20 16 16 13 9 3 3 13 4 5 6 10 3 5 14 19 28 31 21 19 12 5 5 6 13
24 23 21 19 18 15 13 13 12 11 9 2 7 10 12 11 13 17 18 20 20 19 9 5 3 5 3 5 2 2 12 10 5 8 25 22 22 12 6 4 8 8 12 18
26 26 24 20 19 16 14 9 18 16 14 4 2 9 16 17 21 23 22 22 23 22 9 6 8 15 9 3 3 13 22 23 24 28 29 15 16 2 2 1 9 12 17 22
30 27 24 25 23 21 18 6 4 11 18 4 5 6 6 16 18 21 17 20 18 13 7 8 14 17 9 2 5 7 15 26 22 19 20 14 6 2 5 10 14 20 23 20
22 22 21 20 20 20 21 20 9 13 14 8 3 3 4 3 2 3 2 3 5 8 5 4 4 3 8 4 14 19 15 15 21 17 11 9 4 3 9 13 18 21 21 21
20 18 18 21 21 14 16 18 18 14 8 4 4 3 3 3 2 2 0 1 1 2 3 3 2 1 4 7 12 19 27 23 22 8 4 6 2 6 13 19 24 24 25 26
18 21 10 6 8 10 12 8 4 9 6 7 4 5 2 6 7 3 1 1 1 2 3 3 1 3 13 18 19 19 14 3 2 9 3 4 11 21 26 28 30 26 26 28
19 7 5 12 16 7 5 4 4 4 3 3 3 11 3 5 3 2 5 1 1 2 3 2 2 3 7 16 9 8 7 7 11 9 10 17 23 28 26 27 27 25 25 23
11 10 17 14 4 3 2 1 0 2 3 4 4 4 4 4 4 3 3 2 1 4 1 1 2 3 12 10 11 11 10 10 12 16 18 21 22 20 21 25 27 25 25 25
18 5 5 5 3 3 5 6 3 2 4 6 6 2 4 4 3 3 2 2 3 3 0 3 4 5 12 14 14 14 13 12 15 20 23 23 23 23 26 28 29 29 28 29
3 4 4 3 3 3 3 3 3 5 3 11 10 4 2 2 2 2 3 2 1 2 2 5 2 7 10 11 10 12 15 19 24 26 25 26 26 27 29 29 30 28 27 31
2 4 3 3 3 3 4 4 6 4 10 12 7 5 2 1 3 1 2 2 3 4 4 3 2 7 7 8 11 18 22 24 24 26 28 30 31 31 31 30 28 29 30 25
1 2 4 4 6 3 6 6 6 9 11 7 3 3 3 3 3 3 5 6 6 4 4 1 7 6 5 20 22 24 25 24 27 28 30 31 31 30 29 30 28 28 23 21
1 1 4 9 2 7 8 9 8 11 11 2 3 3 8 3 3 2 4 5 3 5 11 8 6 11 21 25 25 23 22 28 28 29 31 32 32 31 30 29 32 27 22 23

GFSNW_850_spd_006.txt.gz
Wind_Speed
2 5 7 9 5 6 4 2 4 3 5 4 3 2 1 3 3 7 5 5 3 3 3 3 2 2 3 5 3 3 2 4 3 4 1 1 2 3 3 4 4 2 3 6
2 3 4 7 8 6 5 4 4 6 4 3 2 0 4 5 4 5 3 3 4 5 3 4 3 4 3 6 3 2 1 2 3 8 5 4 3 2 4 5 3 6 2 5
3 2 2 4 7 5 5 3 2 5 7 7 6 4 2 3 7 6 8 4 5 5 5 6 2 2 3 6 4 5 2 2 5 5 6 4 5 4 4 5 3 3 10 16
5 3 2 1 3 4 3 3 2 2 0 5 6 4 2 3 3 4 6 5 5 4 3 3 3 3 5 5 4 3 4 2 4 5 8 7 11 11 7 8 8 6 15 9
7 4 3 1 0 1 2 3 4 5 5 4 5 5 1 3 3 3 2 6 2 4 4 4 2 2 2 5 2 2 3 3 0 4 3 4 8 12 10 9 7 11 14 15
8 6 4 3 2 1 2 4 7 4 3 3 4 2 4 4 7 5 4 12 4 3 5 6 4 7 6 2 2 2 0 3 2 5 3 8 8 6 5 3 5 6 6 11
9 7 6 5 4 3 1 6 6 4 2 2 3 3 3 4 3 7 6 7 5 4 5 3 5 6 5 5 6 7 5 4 2 3 4 2 8 2 6 7 8 10 7 6
10 8 7 6 6 5 4 6 3 3 2 1 3 7 7 8 7 4 5 3 4 8 2 4 6 5 6 3 6 2 6 5 2 3 3 5 9 8 1 4 7 3 2 4
12 10 8 8 7 7 6 6 4 3 9 5 7 6 6 3 2 3 3 6 9 5 5 4 3 2 4 4 5 7 5 5 3 1 4 5 7 3 3 2 6 1 8 17
14 11 9 9 9 9 8 6 5 3 3 4 10 4 6 6 4 3 3 5 3 3 2 2 3 3 2 2 2 3 1 1 6 7 5 8 8 8 1 3 3 20 20 24
15 13 11 10 10 10 9 8 7 6 3 5 8 7 7 7 6 4 6 4 0 4 3 3 3 2 5 1 4 4 4 3 4 2 3 8 3 2 1 10 21 23 28 14
16 15 13 11 11 11 10 8 8 7 4 2 9 9 8 8 5 7 10 2 4 7 4 1 3 3 2 4 3 1 4 7 3 7 6 7 4 17 33 25 22 18 7 1
18 16 15 12 11 10 10 9 8 6 4 6 8 8 10 11 10 11 6 6 7 6 7 9 3 3 3 4 5 3 4 6 4 3 7 15 24 34 23 13 10 7 5 10
20 18 17 15 12 10 9 8 8 7 3 1 4 8 8 11 12 12 14 17 12 10 7 5 3 3 10 3 4 5 8 3 4 6 19 21 20 12 15 10 12 17 7 10
22 20 18 16 14 12 11 10 10 10 8 2 3 7 12 14 14 14 16 18 19 15 5 4 3 4 3 4 0 3 10 5 4 13 19 13 18 8 11 9 5 5 12 19
25 22 21 18 16 13 11 5 14 15 11 3 1 5 8 8 12 14 19 20 18 15 7 5 6 13 6 3 3 11 13 21 27 16 21 17 16 6 1 3 9 12 17 23
28 24 23 19 16 15 14 5 3 13 16 3 3 6 3 8 12 15 18 20 18 14 7 7 10 18 10 2 6 4 22 16 18 14 14 6 3 3 8 9 13 16 20 23
29 26 21 20 21 20 20 18 7 9 11 6 2 3 3 2 1 2 3 4 5 6 4 3 3 3 5 3 7 10 11 16 12 12 7 2 11 6 7 12 21 25 26 26
26 25 25 22 22 16 18 17 19 16 8 5 5 4 3 3 2 2 2 2 1 3 2 2 2 1 3 3 15 18 18 12 8 5 11 10 7 13 20 23 24 23 27 28
27 25 12 8 11 9 10 10 10 7 5 6 5 7 2 7 7 2 1 2 1 1 1 3 1 2 2 13 11 10 11 12 11 12 9 12 20 24 25 24 19 22 27 29
18 7 4 14 20 9 5 4 4 3 1 4 5 11 3 7 2 2 4 2 2 1 3 1 1 2 3 8 13 15 13 10 10 10 12 16 19 22 25 27 26 27 27 28
9 5 16 13 3 4 3 3 2 2 4 5 5 4 3 3 3 2 2 2 1 3 3 0 2 2 6 8 8 8 9 10 13 16 19 22 23 23 23 26 28 29 30 32
15 5 4 2 2 2 5 6 2 2 5 7 7 3 4 4 3 4 2 2 3 2 1 3 3 5 5 7 7 8 10 15 20 21 21 21 22 23 25 29 30 29 30 30
3 4 4 3 2 2 2 2 3 3 4 11 11 6 2 2 3 2 3 0 1 1 2 5 2 3 4 4 5 11 18 22 22 21 22 25 26 29 30 30 29 28 29 29
3 2 3 2 2 2 4 6 7 5 7 12 7 6 3 2 3 2 2 1 3 4 4 3 4 4 4 4 14 20 23 22 21 21 26 27 28 29 33 34 31 29 26 28
2 3 4 4 3 3 5 6 7 8 13 8 4 3 3 1 3 3 5 5 5 3 3 3 2 5 6 17 21 21 20 19 21 26 26 27 30 31 34 35 30 30 29 30
3 2 4 8 3 9 8 7 7 9 8 2 3 3 6 4 2 2 4 5 4 9 4 2 4 14 22 23 23 21 20 23 25 26 26 29 30 32 32 29 27 26 28 26

GFSNW_850_spd_009.txt.gz
Wind_Speed
3 6 9 9 7 8 6 3 3 4 10 4 3 3 5 4 2 5 4 5 4 3 3 4 3 3 1 4 1 2 1 2 1 2 1 1 1 3 3 2 2 1 0 7
1 3 6 10 7 8 5 4 5 4 7 3 1 1 3 5 2 5 3 3 3 3 3 4 3 3 2 6 3 1 2 2 2 2 2 2 1 2 4 4 2 7 3 6
1 1 4 7 8 6 6 4 2 3 4 6 7 5 2 4 6 5 7 4 4 4 4 5 3 2 2 3 3 4 2 2 4 4 3 2 4 4 5 4 4 4 12 18
3 1 1 4 6 5 4 2 2 2 1 3 6 4 3 4 3 4 4 4 3 5 3 2 2 1 2 2 2 2 3 3 3 4 8 5 10 12 11 12 12 7 14 15
4 3 1 1 3 3 3 3 5 6 4 4 5 4 1 4 3 3 2 6 2 3 4 4 4 3 2 3 1 2 2 2 1 3 5 4 8 14 12 13 13 13 18 20
6 4 3 2 1 2 2 5 8 4 3 2 4 2 4 5 8 6 4 14 5 4 5 6 3 5 3 2 3 2 0 3 1 3 5 8 7 4 4 3 5 4 6 8
8 6 4 3 1 2 3 6 6 4 1 2 3 4 3 5 3 7 7 6 5 4 6 5 1 2 5 2 4 1 4 3 1 2 4 1 3 2 5 7 13 8 8 6
9 7 5 4 3 2 4 7 4 4 2 2 3 9 8 11 8 5 6 3 5 10 4 3 5 4 5 3 8 4 4 4 2 2 3 6 11 6 2 4 7 3 4 9
11 9 8 5 4 3 4 5 5 4 11 5 8 6 8 4 3 3 4 6 10 5 5 3 2 2 3 3 2 5 4 3 1 2 3 5 4 1 4 4 6 4 11 21
12 11 9 8 6 6 5 5 6 4 5 8 10 4 6 6 6 3 3 5 4 4 2 2 3 3 1 2 2 2 1 1 4 6 5 8 6 4 1 2 3 10 20 24
13 12 11 9 8 7 7 6 6 5 5 11 8 7 7 7 6 4 8 5 1 4 3 3 3 3 3 2 2 3 3 3 4 2 4 7 2 3 1 7 23 17 20 8
14 13 12 11 10 9 8 7 7 7 4 5 7 7 6 6 5 8 15 3 5 8 4 2 3 3 2 3 3 0 4 5 2 7 6 6 8 17 15 13 7 10 8 5
15 14 14 11 10 9 9 8 8 8 6 4 7 6 8 7 7 7 5 5 6 7 6 9 3 4 4 4 6 2 3 6 4 1 8 17 20 21 12 10 11 10 7 7
17 15 14 13 11 9 8 8 8 8 5 3 4 7 6 8 9 9 9 8 8 7 8 4 3 2 10 4 3 5 7 5 4 6 20 18 13 12 20 8 5 6 7 10
20 18 16 14 12 11 9 8 9 10 7 4 4 6 8 9 8 9 11 12 11 9 6 4 3 5 4 2 1 5 9 7 4 6 14 9 6 11 6 2 5 6 10 15
22 19 17 15 14 11 8 5 11 11 10 2 1 4 8 10 13 13 14 15 15 12 7 5 6 8 5 3 3 8 18 18 19 15 9 15 9 2 6 3 5 8 10 16
25 22 18 17 14 13 9 3 2 13 14 4 1 3 2 8 11 10 11 13 9 9 6 8 6 7 7 2 3 5 7 12 7 8 6 2 3 5 2 4 8 13 19 24
27 23 19 17 14 13 14 13 5 9 9 6 3 3 1 4 4 4 5 5 6 5 4 3 4 4 6 4 2 8 9 8 3 2 2 8 12 5 8 13 19 23 25 24
27 25 21 20 22 16 21 18 17 16 9 6 6 4 3 4 4 3 3 3 2 1 2 2 3 2 4 1 6 7 5 2 13 15 13 7 7 12 17 20 22 23 26 26
28 28 17 9 12 17 17 14 12 12 7 8 4 6 2 5 5 1 3 1 2 2 1 1 2 2 5 4 6 13 18 18 10 6 5 10 14 17 20 22 24 24 27 31
22 7 5 15 23 12 5 5 3 3 3 4 4 5 4 6 2 3 3 2 2 2 0 2 1 2 4 13 13 10 9 8 7 7 9 12 16 20 24 27 28 29 31 33
8 11 18 11 3 4 4 2 4 2 3 5 5 4 4 4 4 3 2 2 1 3 0 2 2 1 8 10 7 6 5 6 10 14 16 17 18 20 23 25 27 28 30 31
12 4 5 3 2 3 4 4 1 3 7 7 6 4 4 4 4 4 2 2 2 1 1 3 2 8 9 8 6 3 5 11 16 17 17 17 19 21 22 26 27 30 32 32
3 3 4 2 1 1 3 3 3 4 6 13 11 6 2 2 3 2 3 1 1 2 2 5 3 10 8 5 3 7 14 18 18 18 18 19 23 25 26 27 30 32 32 31
4 3 3 1 2 4 6 11 9 7 12 16 9 6 3 2 3 2 2 2 3 4 4 2 11 6 4 4 7 16 20 20 20 18 20 24 25 26 30 30 31 28 28 28
3 4 4 6 4 3 5 9 10 9 14 10 5 3 2 1 3 3 5 5 5 3 3 10 4 3 3 9 16 19 20 19 19 20 23 25 24 26 30 32 30 28 27 29
2 3 5 5 3 6 6 6 8 10 11 2 4 3 3 4 2 2 4 5 3 9 8 3 4 5 13 17 20 20 19 18 20 24 24 24 24 28 30 31 31 29 30 27

GFSNW_850_spd_012.txt.gz
Wind_Speed
7 7 8 10 13 12 10 5 3 8 13 4 2 4 4 3 4 3 4 5 5 4 3 3 3 4 3 3 2 2 4 1 1 1 2 3 2 1 0 2 2 2 4 7
6 6 8 9 13 12 8 4 5 6 9 3 3 4 4 4 3 3 3 3 2 3 4 4 5 3 2 3 1 2 1 0 2 3 4 3 5 2 1 1 1 9 4 4
5 5 6 8 11 11 9 4 3 3 2 3 10 10 5 5 5 4 7 5 7 7 5 3 6 5 2 1 2 1 1 2 4 4 6 4 6 7 7 9 5 8 13 18
5 5 5 5 8 9 8 3 2 3 4 4 10 6 6 10 5 4 3 4 3 5 4 4 4 3 4 2 2 1 2 3 3 7 10 13 12 13 12 15 16 11 16 16
4 5 5 4 5 6 4 4 4 4 4 7 11 1 7 8 5 2 4 7 7 5 5 2 5 4 3 2 4 1 2 1 3 3 7 11 13 16 15 13 14 14 16 16
6 5 5 4 4 4 3 4 9 5 1 4 3 3 7 8 9 5 5 15 10 8 8 6 6 5 5 3 1 2 1 2 1 3 8 13 6 3 2 4 4 8 11 10
7 5 5 4 4 4 4 7 8 4 3 2 3 7 6 11 3 8 9 6 6 4 8 8 8 10 7 4 3 1 4 3 1 2 4 3 3 6 9 13 14 9 10 4
9 7 5 4 5 5 5 8 4 3 3 4 6 10 11 12 10 11 9 4 7 11 4 2 3 1 2 4 6 3 2 3 3 2 4 14 12 4 3 3 13 4 4 10
11 9 7 6 6 6 7 6 6 4 12 5 7 8 12 6 5 5 4 7 12 5 3 2 2 1 1 3 4 5 4 4 2 3 3 4 4 4 4 3 9 2 11 21
12 10 8 7 7 8 8 8 7 5 6 8 10 4 7 7 6 5 5 6 3 3 2 2 2 2 1 3 3 4 3 2 4 6 6 7 5 3 2 4 4 15 15 14
14 11 10 9 8 8 9 9 8 7 5 11 8 8 9 8 8 5 9 6 2 3 3 3 3 2 4 3 2 3 3 4 4 2 4 6 3 3 4 8 14 6 5 3
14 13 11 10 9 8 9 9 8 8 6 8 10 9 9 8 10 9 13 1 6 8 4 3 3 3 1 1 3 4 5 5 3 7 6 6 15 19 14 8 6 2 4 7
15 14 12 10 9 8 9 9 10 9 6 7 8 8 11 10 10 11 6 6 8 6 6 7 2 3 5 4 6 5 4 7 4 5 12 16 13 18 7 6 4 0 4 2
15 14 13 11 9 9 9 10 11 10 6 5 5 10 11 12 11 11 11 8 12 9 8 4 3 3 9 4 5 8 7 5 10 13 18 18 9 5 6 7 3 3 4 5
17 15 14 13 11 10 9 10 11 12 6 4 4 10 10 11 12 12 12 11 13 10 6 3 3 4 4 3 1 6 17 14 6 5 11 7 8 7 8 7 3 2 6 9
19 16 15 14 12 10 8 5 9 11 9 4 2 5 9 12 12 12 12 10 12 9 6 5 5 5 6 3 3 9 14 14 14 14 9 5 5 1 6 4 3 5 9 14
21 17 16 14 14 13 9 4 4 15 12 4 2 2 4 10 10 9 9 12 6 5 4 6 7 7 9 2 5 9 8 6 4 4 5 3 5 4 2 2 7 12 16 19
24 20 17 15 14 13 14 8 4 9 9 5 3 2 2 7 4 5 6 5 7 6 4 3 3 3 4 3 4 1 2 2 0 2 2 6 8 3 4 9 13 17 20 22
27 22 21 18 20 14 15 14 11 9 8 5 5 6 4 10 4 4 4 5 2 3 3 3 4 3 5 3 2 1 4 6 10 11 9 5 1 5 9 13 16 19 21 22
30 27 17 10 11 11 18 14 8 9 9 6 6 5 3 6 5 3 4 2 1 3 2 1 2 2 5 4 6 8 11 14 10 6 1 4 7 11 13 15 16 17 21 26
29 8 9 11 26 18 8 6 5 4 2 6 6 8 4 5 3 3 3 2 2 2 2 2 2 3 8 12 13 11 10 9 6 3 3 6 9 12 14 16 18 23 25 28
13 14 20 18 6 4 4 4 4 4 4 6 7 5 5 5 4 4 3 2 2 3 3 2 3 3 15 16 12 11 8 4 2 7 9 11 12 13 18 21 24 25 27 30
18 5 5 4 3 2 4 6 2 4 7 7 6 5 4 3 3 5 2 4 3 2 3 3 2 10 16 14 12 11 4 4 10 12 12 14 14 16 19 22 23 26 30 30
4 3 4 1 3 2 2 2 3 3 5 13 13 6 3 3 3 2 2 2 2 3 4 5 4 15 15 12 10 7 4 10 14 15 15 15 17 21 22 22 24 27 28 29
4 2 2 2 4 5 6 9 9 7 12 13 9 6 2 2 3 1 3 4 4 4 3 1 11 13 10 8 9 8 13 15 17 17 17 17 20 22 24 23 26 27 26 27
3 3 3 5 4 3 5 9 11 13 17 10 4 3 3 2 2 4 5 3 5 1 2 8 11 10 7 5 8 13 16 17 18 17 18 21 22 22 24 26 28 27 26 28
2 3 8 5 3 7 8 11 10 15 15 2 3 5 2 5 3 3 4 4 1 4 9 9 7 6 5 11 16 19 19 19 18 19 21 22 21 22 24 28 29 28 27 27

GFSNW_850_spd_015.txt.gz
Wind_Speed
5 6 7 13 15 17 16 8 5 10 14 9 6 5 6 4 8 4 3 2 4 6 4 3 3 5 5 3 4 3 6 2 2 4 4 3 3 4 4 2 3 3 4 8
6 6 7 14 16 18 9 6 6 10 14 4 3 5 6 3 7 3 4 3 1 4 5 4 6 5 4 4 4 6 6 1 3 5 6 4 4 1 2 1 2 10 7 6
7 6 7 12 16 15 8 6 3 6 8 5 9 9 9 7 3 4 4 7 7 8 6 4 7 7 4 2 4 4 3 1 3 5 8 6 8 9 9 10 7 11 12 17
7 6 6 9 13 13 8 2 2 4 6 6 9 9 10 10 5 3 7 4 4 7 4 6 5 7 7 3 2 1 3 2 4 9 11 11 12 13 14 15 15 14 16 17
6 6 5 7 9 11 5 5 4 3 3 8 10 5 10 12 5 8 7 7 8 6 6 2 6 5 3 2 4 1 2 1 3 4 7 11 15 17 18 16 11 13 14 13
7 6 5 6 6 8 3 4 8 7 3 9 8 7 9 9 10 2 4 11 8 9 9 10 10 8 5 4 2 3 1 0 2 4 10 13 6 3 3 7 8 8 9 12
8 7 6 6 6 6 4 7 6 5 4 7 8 8 9 12 6 8 10 8 8 6 10 11 10 10 6 2 2 1 4 1 2 3 5 3 6 11 14 10 9 10 9 9
9 8 6 6 6 6 6 10 5 4 3 7 7 11 15 11 13 15 12 6 8 11 3 2 2 1 3 1 4 3 2 3 2 2 5 14 12 4 6 9 13 11 6 9
10 8 7 7 7 7 8 8 6 3 13 5 12 13 16 11 7 7 5 7 7 4 3 2 2 3 1 5 6 5 4 2 3 3 3 4 3 2 4 7 11 5 8 17
12 10 8 8 8 8 8 7 7 4 6 6 10 8 11 7 11 5 8 7 4 3 2 1 3 3 2 4 3 4 3 2 5 6 5 8 8 2 4 5 3 12 12 13
13 11 10 9 9 9 8 8 7 6 5 7 5 6 9 7 10 5 11 6 2 3 2 3 3 1 4 3 2 5 7 6 4 4 4 6 3 6 3 7 20 10 1 6
13 12 11 10 10 10 8 3 6 6 6 6 10 10 12 10 8 6 14 1 7 9 3 3 2 2 0 0 3 5 4 7 4 8 5 12 9 16 12 8 7 4 6 7
14 12 11 10 10 11 11 8 9 6 5 5 6 5 10 10 12 11 6 5 6 7 3 7 3 3 5 4 6 6 6 12 6 8 7 16 17 17 3 2 2 4 7 8
14 13 12 11 10 10 10 11 11 8 5 5 4 8 10 12 11 11 8 7 11 9 5 4 3 3 10 4 7 7 9 9 9 13 20 19 12 4 7 9 4 6 5 7
14 13 12 10 9 9 9 10 11 11 3 4 3 7 10 13 13 11 9 7 7 5 4 3 3 4 3 3 2 8 15 15 10 10 15 3 9 7 9 6 4 3 6 9
15 14 13 12 11 9 6 3 9 11 8 3 3 4 4 9 9 7 8 9 7 9 5 5 6 8 7 4 4 7 10 10 16 14 5 2 3 4 5 3 1 5 9 13
17 14 12 12 12 12 8 4 5 15 10 4 3 3 2 10 6 5 7 6 6 6 5 6 6 8 8 3 7 12 13 9 4 1 3 3 5 3 2 2 5 9 13 17
19 17 14 13 12 13 10 6 5 13 8 4 2 2 2 8 5 4 6 4 5 5 4 2 4 4 3 4 10 11 8 4 2 1 4 6 6 5 3 5 9 14 18 20
23 17 16 15 16 12 13 11 6 10 6 3 5 6 4 8 4 4 4 4 2 2 3 4 5 3 6 8 10 10 9 6 4 7 9 7 3 1 5 10 13 16 19 19
29 25 15 11 10 15 14 9 6 6 6 5 6 7 4 8 5 4 5 3 2 3 3 4 2 3 8 6 5 6 8 9 12 10 6 2 2 6 9 12 13 15 17 19
27 15 7 10 26 19 12 7 7 6 3 7 7 11 5 5 3 4 4 3 4 3 3 3 3 3 10 13 11 11 13 11 8 6 3 1 5 8 11 12 14 15 17 19
14 9 14 19 3 4 5 3 4 4 4 5 6 4 6 6 5 4 4 3 3 3 6 2 3 3 11 15 15 14 13 10 6 1 3 6 8 10 11 13 15 16 22 24
14 4 5 2 0 2 6 8 3 3 7 8 7 4 4 4 4 4 3 4 3 1 2 3 3 9 13 15 15 14 11 7 3 4 6 9 11 12 15 18 20 20 23 24
3 3 3 2 2 1 2 3 3 5 7 13 15 7 2 3 2 2 3 2 2 3 3 4 2 8 13 13 12 13 9 6 8 11 13 15 15 16 17 20 20 21 24 26
3 3 2 2 3 5 6 6 6 8 13 9 8 5 2 3 3 1 3 3 3 4 2 3 3 10 12 11 10 9 9 10 13 12 15 17 16 19 21 20 20 22 25 26
3 3 2 3 4 3 4 5 7 7 10 8 6 2 1 2 1 2 3 2 4 1 2 3 9 10 9 7 7 8 11 15 18 18 18 18 19 20 21 21 22 23 24 27
3 3 5 3 3 4 4 4 5 8 8 2 3 2 2 3 2 2 2 3 2 0 4 7 7 8 6 5 9 15 18 19 18 17 17 18 20 20 21 22 18 20 25 26

GFSNW_850_spd_018.txt.gz
Wind_Speed
4 3 8 13 15 21 20 10 6 10 12 8 11 8 2 1 7 2 2 4 3 4 4 2 4 10 8 4 4 4 4 2 1 8 5 3 3 4 3 1 3 1 1 7
5 3 8 14 18 22 16 9 6 14 17 5 4 4 5 4 7 7 5 2 1 3 5 3 6 8 4 4 6 4 4 1 2 7 5 4 2 3 2 3 2 4 4 5
6 4 7 15 19 21 13 8 3 6 10 10 11 8 7 5 3 4 1 5 4 5 5 3 6 9 4 5 8 3 3 1 1 2 5 6 7 9 10 10 4 6 8 14
6 5 6 13 18 18 9 6 5 10 6 9 6 11 9 10 6 5 7 5 6 6 3 6 5 11 8 5 2 1 3 0 4 7 8 7 10 12 13 13 12 9 11 14
7 5 6 9 14 15 12 6 2 6 5 15 10 5 6 11 7 8 8 4 7 8 6 3 7 6 5 3 4 2 3 1 4 3 3 10 13 15 12 12 11 10 11 13
7 6 6 7 10 13 7 4 1 4 1 5 6 6 9 9 10 2 5 7 7 10 13 14 13 13 9 7 4 4 2 1 2 2 9 9 2 2 7 9 11 9 6 8
7 6 6 6 7 10 4 6 3 3 2 5 9 8 7 8 10 6 8 8 9 9 14 13 13 13 8 4 4 3 4 2 2 2 5 2 5 12 7 7 8 8 10 8
7 6 6 6 5 5 6 7 4 3 2 9 8 9 9 12 7 11 14 9 9 14 5 3 2 2 4 2 4 3 4 3 2 1 3 9 8 4 3 5 10 9 7 11
8 6 5 6 5 4 5 6 7 3 8 3 8 10 14 8 9 7 6 7 7 5 3 2 3 3 3 6 5 6 4 4 1 2 2 3 2 5 4 8 7 10 8 10
10 8 6 6 6 6 5 5 6 5 4 2 2 8 10 12 10 5 9 6 4 1 2 2 3 2 2 5 5 4 3 2 4 5 4 6 8 4 3 3 2 13 7 6
11 9 8 7 7 7 7 5 5 6 4 3 4 5 7 4 12 4 12 5 2 3 3 3 3 1 4 1 4 7 7 6 4 3 4 6 1 2 1 8 19 11 3 4
13 11 9 9 8 8 6 2 5 5 5 6 9 10 10 7 5 8 16 2 8 8 3 2 1 1 1 3 3 10 4 6 4 9 5 9 7 4 3 1 1 4 7 4
13 12 10 9 9 9 10 6 8 5 5 5 5 3 8 10 9 13 6 5 5 8 4 7 3 3 4 4 4 3 4 10 3 3 7 10 12 7 3 6 4 0 4 5
14 12 11 10 9 9 9 7 9 6 4 5 3 5 7 9 9 11 8 7 10 9 7 5 3 3 12 4 6 4 6 5 6 8 15 15 6 6 6 3 0 4 5 4
13 12 11 10 9 8 8 6 8 9 3 4 2 4 9 9 9 6 7 8 9 6 4 3 3 4 2 4 1 3 9 8 5 6 9 3 1 5 2 2 3 5 2 5
12 11 11 10 9 8 6 2 6 9 7 3 2 2 1 5 7 6 6 7 7 8 7 4 4 7 7 3 2 8 11 10 10 5 4 5 5 3 6 5 6 2 3 7
12 12 11 10 10 11 6 3 3 10 9 3 2 2 2 8 6 6 5 7 4 4 2 5 4 3 6 3 6 9 10 12 6 3 6 3 2 6 5 5 3 3 6 10
12 11 10 9 10 9 6 5 2 10 5 4 3 2 1 7 4 2 2 4 3 4 3 3 3 5 2 4 9 15 17 10 5 5 5 5 6 6 6 3 2 6 9 12
17 14 11 9 8 6 7 8 4 10 6 3 4 5 3 7 4 4 3 4 2 2 3 4 4 3 6 7 9 12 10 8 5 6 7 10 9 6 2 2 5 7 10 12
21 17 10 8 10 9 9 6 3 4 6 5 6 7 3 7 5 3 5 2 2 2 3 4 2 3 14 13 7 4 8 10 11 13 11 8 5 2 2 5 7 8 11 15
24 12 7 8 21 16 9 5 5 5 3 7 9 15 6 8 4 3 6 3 3 3 3 3 3 3 9 16 9 7 10 12 12 8 8 5 2 2 5 7 10 14 14 17
11 9 11 13 2 2 3 3 3 4 5 4 6 5 6 7 5 4 5 3 2 5 9 2 3 3 6 12 11 12 12 12 10 7 4 1 2 5 9 12 14 15 18 19
13 4 4 2 1 2 2 4 2 2 3 4 5 3 5 5 4 5 2 5 5 1 3 3 2 10 9 11 13 13 12 11 9 4 1 3 7 10 14 15 16 18 20 19
3 3 3 2 2 2 1 2 2 2 3 11 13 6 4 4 2 3 3 1 2 3 3 4 1 8 9 10 11 11 9 6 3 6 9 12 15 15 16 17 19 20 20 19
3 3 2 2 2 3 3 3 5 6 7 7 7 5 3 2 2 0 3 4 2 2 1 2 9 8 10 12 10 7 5 4 9 11 15 18 19 19 19 19 20 19 21 22
3 3 3 3 3 3 5 8 9 5 7 6 5 2 1 2 2 2 1 1 1 2 3 4 8 9 9 8 6 5 5 10 15 19 19 19 19 20 21 22 21 21 19 21
2 2 5 6 7 4 2 5 4 2 4 2 2 2 4 1 0 0 1 2 2 3 3 5 7 7 6 5 2 9 15 17 17 17 18 19 20 22 23 25 21 15 17 23

GFSNW_850_spd_021.txt.gz
Wind_Speed
5 4 9 14 16 20 20 11 1 10 12 4 4 3 3 2 3 4 3 3 5 3 5 5 5 4 4 8 9 3 3 4 3 3 2 2 0 3 4 4 3 1 4 5
5 4 9 15 18 25 21 6 5 10 15 3 2 6 3 1 5 4 1 5 6 5 4 5 9 5 6 9 5 2 3 2 3 4 4 4 1 4 4 5 3 5 5 5
5 4 8 15 21 27 20 3 2 4 10 8 4 4 3 2 6 3 5 5 3 3 4 4 4 4 2 6 4 2 3 2 5 5 3 1 2 5 4 6 3 3 6 7
6 5 7 15 21 25 12 4 4 10 3 6 5 5 8 6 2 1 3 1 3 4 3 4 5 5 4 2 1 1 3 3 4 4 5 4 3 5 7 5 5 4 7 4
7 6 7 12 18 19 12 4 4 14 11 20 4 5 6 8 8 6 4 3 6 7 4 2 6 8 5 4 5 4 4 1 2 1 6 7 4 7 8 8 2 3 5 4
8 7 7 9 14 16 9 4 4 1 3 5 4 3 0 1 9 3 5 5 11 14 7 21 17 19 16 10 5 3 3 4 3 2 4 5 4 4 5 4 3 3 2 1
8 7 7 8 11 13 5 3 2 4 2 1 4 6 6 8 7 6 14 16 9 12 18 18 15 19 19 14 10 7 4 3 3 2 4 2 5 2 5 6 4 6 8 9
8 8 7 7 9 10 7 6 5 3 1 2 3 3 4 19 26 13 20 15 15 17 6 4 5 5 7 5 6 5 4 4 3 3 1 6 5 3 4 4 3 6 6 9
9 8 7 7 7 8 7 9 8 5 8 4 7 3 21 6 4 4 5 12 10 4 5 4 4 4 5 3 2 11 7 6 4 2 4 6 6 5 7 2 3 6 8 9
10 8 8 8 8 7 7 9 8 5 4 5 6 3 7 11 8 4 6 3 3 4 3 2 2 3 2 5 7 3 3 1 5 3 3 7 8 6 5 5 6 3 7 6
10 9 8 8 7 7 8 8 8 7 4 4 4 4 9 13 15 5 10 5 1 4 3 3 3 2 4 2 7 7 7 7 4 3 3 7 11 5 8 6 6 9 8 2
11 9 8 8 7 7 7 9 8 6 4 4 4 7 8 10 11 12 20 4 6 8 4 1 3 1 0 1 3 4 2 7 6 8 6 10 9 9 8 8 7 8 4 0
11 9 8 8 8 9 8 9 8 7 5 6 6 4 5 6 10 16 8 6 7 9 6 6 3 3 3 4 5 1 3 13 3 4 7 10 10 12 11 10 12 7 1 3
12 10 9 8 8 8 8 7 7 6 5 5 2 4 7 7 10 12 11 12 10 16 9 5 3 3 12 4 4 4 6 3 1 3 3 2 9 9 14 10 6 3 4 6
12 11 10 9 8 7 6 6 7 6 3 4 3 4 5 6 7 8 8 9 13 9 5 3 3 5 2 1 2 2 5 5 3 5 5 6 10 11 7 5 5 10 5 4
12 11 10 9 9 9 7 3 6 8 7 3 1 2 1 4 8 6 6 6 5 5 5 4 4 3 6 3 3 6 13 16 14 6 8 8 13 8 3 4 11 9 4 1
12 11 10 9 10 11 6 4 4 10 8 4 3 1 2 6 9 8 6 8 6 4 3 4 3 3 4 2 4 9 12 10 8 8 12 8 6 4 11 8 9 4 4 1
11 10 9 9 9 10 7 4 3 10 7 4 3 2 1 8 4 4 3 3 3 2 2 4 4 2 1 3 11 18 21 21 12 14 8 4 6 15 10 9 8 4 1 7
9 10 6 6 5 6 7 6 3 8 5 5 4 4 3 8 4 4 4 3 0 2 2 4 3 2 5 7 9 10 11 16 17 8 6 9 13 10 12 7 3 2 7 11
14 11 5 4 7 5 7 2 2 5 7 6 5 6 2 7 4 3 4 1 2 2 3 4 1 3 12 11 5 3 12 16 11 11 16 15 14 8 4 1 5 8 11 15
19 9 6 9 15 9 5 4 3 3 2 6 6 14 5 7 4 3 5 2 2 2 4 5 3 3 7 9 10 10 8 9 12 15 15 14 10 6 3 5 9 12 15 14
12 9 11 10 5 4 4 3 1 1 2 2 2 3 5 6 5 4 6 4 2 5 10 2 3 3 9 17 14 13 16 18 18 15 12 8 4 4 6 9 13 13 13 16
14 5 4 2 2 1 3 5 1 1 1 2 3 2 4 5 5 4 2 5 5 5 3 3 3 7 12 13 15 16 16 16 13 10 6 2 3 7 10 11 11 13 16 16
4 4 4 2 2 2 2 1 1 1 2 3 3 5 3 2 2 3 3 1 2 2 3 3 1 9 11 14 13 14 13 9 5 1 4 7 11 12 11 12 13 16 17 15
4 3 3 2 2 3 1 3 3 3 5 7 5 4 3 2 2 1 2 1 1 1 1 1 2 8 14 14 14 12 10 6 3 6 11 13 13 13 14 15 16 18 19 18
3 4 3 5 4 2 4 8 8 6 7 6 4 2 1 2 1 1 0 2 1 2 1 8 10 11 12 11 8 6 3 3 10 12 12 12 13 15 18 20 20 19 19 17
3 3 6 4 5 5 4 5 5 5 3 2 2 2 1 1 1 1 2 2 1 0 4 6 4 5 6 5 5 1 9 13 13 14 15 17 17 18 19 19 17 17 16 19

GFSNW_850_spd_024.txt.gz
Wind_Speed
13 14 18 23 24 23 21 13 3 12 11 3 0 2 4 2 4 5 4 3 3 5 4 4 3 3 2 7 2 3 2 5 3 1 3 2 2 3 4 4 2 2 3 4
13 13 18 23 25 27 23 13 5 10 14 3 2 5 3 2 2 2 2 3 4 4 4 6 3 3 4 10 4 2 2 2 3 6 6 5 3 1 5 6 3 5 5 5
13 13 18 23 26 28 20 8 3 4 7 3 6 2 2 2 5 2 4 3 6 5 5 6 5 2 4 6 4 3 2 3 5 6 4 3 3 2 4 5 3 3 6 6
13 13 17 22 27 30 18 4 4 9 4 4 3 3 5 3 2 2 4 4 3 4 3 3 4 3 2 4 2 3 3 3 1 2 4 2 1 2 2 4 5 5 6 6
14 12 15 19 25 28 17 4 3 8 8 13 6 5 6 8 3 3 0 2 4 5 4 5 7 6 3 4 2 2 4 1 2 1 5 6 3 5 5 4 3 4 6 3
14 12 14 17 22 25 11 6 3 7 1 6 4 4 6 8 9 2 4 12 7 9 5 16 17 11 11 9 6 2 3 4 3 3 4 5 5 6 3 1 3 4 5 5
14 13 13 16 21 22 9 4 3 4 1 3 6 3 3 6 3 7 7 11 7 11 21 19 21 24 21 19 13 5 4 4 3 2 3 1 5 5 5 6 3 8 9 7
15 14 13 14 18 19 14 9 3 3 1 1 2 3 12 19 20 8 10 6 10 20 6 5 5 5 6 4 6 7 4 5 3 3 3 5 2 4 5 6 5 5 9 10
14 14 13 13 15 15 11 9 7 4 8 2 2 7 17 6 4 5 5 17 10 6 6 4 4 4 4 2 1 8 6 6 4 3 4 6 5 3 10 8 4 11 13 14
14 13 13 12 12 12 11 10 9 6 5 4 2 4 7 11 7 4 3 4 4 4 2 3 3 4 4 5 6 4 2 3 4 2 2 7 7 5 8 5 7 16 17 16
14 13 12 11 11 11 12 12 10 8 5 6 4 7 10 11 11 5 9 5 2 4 4 3 4 3 5 2 5 6 7 7 4 3 2 8 14 6 7 6 13 15 15 13
13 12 12 11 11 11 13 14 11 7 5 6 10 11 10 10 10 13 17 5 5 8 4 2 3 1 1 2 3 3 2 7 5 9 6 6 16 9 18 11 13 16 17 12
12 11 11 11 11 10 10 12 11 9 7 7 5 8 9 8 9 12 8 6 8 8 5 8 3 3 4 4 5 4 4 8 3 3 6 15 13 12 13 15 14 15 11 8
12 11 11 10 10 10 9 10 9 5 6 5 3 4 6 7 8 11 10 10 15 13 10 5 3 3 9 3 3 4 5 7 5 4 4 5 9 11 14 12 12 11 7 8
13 12 11 10 9 9 8 7 8 6 2 4 5 5 3 4 6 7 5 9 14 13 6 3 3 4 3 1 2 3 7 7 4 6 7 8 9 16 16 14 12 8 15 13
12 11 11 10 10 10 11 4 6 7 5 3 1 3 2 5 7 7 9 8 7 5 5 4 5 4 5 3 4 11 20 21 17 9 13 13 10 16 13 10 10 14 15 10
12 11 11 10 10 10 4 5 6 10 8 4 3 2 2 7 9 9 7 8 4 4 4 5 4 4 5 3 5 9 14 16 17 13 12 13 18 11 11 15 16 15 12 8
12 11 10 10 11 11 8 7 8 10 6 4 3 2 1 6 3 3 4 4 5 3 4 4 4 2 2 3 14 18 22 23 15 16 13 8 14 17 16 19 20 15 9 3
12 11 10 9 8 6 6 5 5 8 3 6 3 4 4 7 3 3 4 3 1 1 2 3 4 1 5 7 8 8 10 12 17 19 11 12 22 21 19 19 13 7 1 6
11 11 4 5 8 7 8 4 3 4 4 3 3 5 1 6 4 2 3 2 1 1 3 4 2 4 15 15 12 8 9 12 21 21 18 19 19 22 16 11 5 4 7 11
13 6 3 8 12 5 3 2 1 1 2 2 1 9 4 4 3 3 4 2 1 3 4 4 3 3 5 9 4 8 8 14 17 15 18 21 18 13 7 1 5 7 11 12
14 9 12 11 4 2 3 1 1 2 3 1 2 3 3 5 3 4 5 3 1 5 5 1 2 2 4 13 15 15 17 20 22 20 20 15 9 4 1 5 8 10 11 12
17 4 4 3 2 2 4 6 1 2 1 2 3 1 3 5 6 4 2 5 4 6 2 2 2 4 11 19 20 20 18 16 16 10 4 6 4 2 6 8 9 10 11 12
4 3 3 1 2 2 1 1 2 2 0 1 2 3 2 2 2 2 3 1 1 2 2 3 1 8 7 11 13 13 12 8 8 7 5 2 7 8 8 9 10 11 13 13
5 3 3 2 3 3 3 3 3 2 3 5 5 4 2 2 2 1 2 1 1 0 2 2 6 3 4 13 13 9 7 4 2 4 8 11 11 10 10 11 13 14 16 16
4 4 3 5 5 3 4 5 5 3 5 4 3 2 2 1 1 1 1 3 3 1 1 1 2 3 5 7 5 5 3 4 7 10 10 11 12 13 14 14 14 13 14 16
3 3 10 6 8 5 4 5 5 4 2 1 2 2 2 1 1 1 2 2 2 2 2 5 6 7 6 6 5 1 9 13 12 11 12 13 12 12 13 13 12 12 14 17

GFSNW_850_spd_027.txt.gz
Wind_Speed
23 22 25 30 30 29 25 17 3 16 15 5 2 3 4 3 2 6 4 4 3 5 4 4 3 4 1 4 0 2 2 5 3 1 5 3 1 3 4 4 2 1 3 5
23 21 25 31 32 31 26 13 5 13 15 4 1 4 4 1 2 3 2 2 2 2 5 6 2 3 1 2 3 4 2 2 3 6 6 5 1 2 5 6 3 4 4 5
22 21 26 32 33 32 24 10 3 3 6 4 7 3 3 1 4 3 3 3 5 5 5 6 5 3 2 2 4 4 3 3 5 6 4 3 3 3 4 5 3 3 6 4
21 22 28 33 35 34 21 7 4 9 4 2 4 5 2 3 2 2 3 4 2 4 4 3 4 2 2 4 2 3 4 3 2 3 4 2 1 4 6 6 5 6 5 7
20 22 28 33 35 34 19 7 5 6 7 17 6 3 5 6 2 3 0 5 3 2 6 6 7 6 3 3 3 3 4 1 1 1 5 6 3 5 6 5 4 7 3 5
19 21 27 31 34 34 14 7 5 7 1 5 6 5 6 8 6 5 3 9 5 4 2 6 11 6 9 8 5 3 3 4 3 3 4 4 6 9 9 5 4 7 6 8
19 20 25 28 32 36 17 7 7 5 1 3 6 7 3 6 4 7 4 8 6 12 29 26 22 25 23 20 13 4 5 4 2 2 3 2 6 3 4 5 3 3 2 7
20 21 24 26 31 32 16 11 6 5 2 2 3 9 7 15 15 5 4 2 8 24 6 5 5 5 6 5 7 6 3 5 3 3 3 5 4 4 6 7 7 7 7 8
21 21 24 26 27 27 18 10 6 4 14 2 8 7 11 6 4 4 4 15 26 5 5 4 4 4 4 2 1 6 5 6 4 3 4 6 5 3 7 5 5 15 16 15
21 20 22 25 27 25 17 10 8 5 8 4 10 4 9 10 7 4 4 5 3 3 2 3 3 3 3 4 5 3 2 3 5 2 3 8 7 5 7 5 7 20 24 26
20 19 20 21 22 22 16 13 10 7 7 7 5 9 10 10 10 5 10 5 1 4 4 3 3 3 5 2 4 6 7 7 4 3 1 8 11 4 8 6 7 21 23 26
18 18 18 18 18 18 16 15 11 8 6 9 12 10 8 9 10 13 17 5 6 8 4 1 3 2 2 2 3 2 2 7 5 9 6 4 18 7 19 9 12 20 21 24
17 17 17 16 16 16 14 15 13 10 16 10 8 9 9 7 8 10 8 6 8 7 6 8 3 3 4 4 6 3 4 7 3 2 4 14 13 24 17 16 16 13 18 18
16 15 14 14 14 13 12 13 12 8 8 6 3 6 6 4 5 9 6 6 14 12 9 5 3 3 9 3 3 4 5 8 5 5 9 8 12 18 20 16 14 13 15 16
14 13 13 12 12 12 12 11 10 7 3 5 6 8 4 3 3 3 5 6 13 9 5 3 3 5 3 1 2 3 9 7 4 6 12 9 7 9 15 17 16 16 17 16
14 12 12 12 12 12 12 5 6 7 8 4 2 4 4 6 5 8 11 10 8 7 5 4 5 5 6 4 4 13 20 22 22 14 13 15 16 12 16 16 17 15 16 16
13 12 11 11 11 11 4 5 8 10 8 4 4 2 3 7 8 7 6 7 3 2 4 4 3 4 6 3 4 17 19 19 19 19 17 9 12 10 19 16 16 18 18 15
13 12 11 10 10 9 7 7 9 10 5 3 4 2 2 5 3 3 3 4 5 1 2 2 3 4 2 3 15 18 17 17 20 20 17 15 10 9 18 16 21 22 16 14
13 13 12 10 8 5 7 8 7 8 3 5 3 4 3 5 3 2 2 2 2 1 1 2 3 1 4 5 7 9 8 7 9 11 13 8 14 20 22 24 19 14 12 6
15 16 5 4 8 11 10 4 3 3 2 2 3 5 1 3 3 2 2 3 1 1 3 3 1 3 9 13 16 16 11 11 12 16 14 17 20 22 20 15 10 7 2 7
12 5 3 12 14 5 3 3 4 3 2 2 2 2 3 2 3 2 1 2 1 2 3 2 2 2 5 13 10 6 5 6 6 8 15 18 20 18 15 9 3 5 9 9
7 7 13 9 2 3 5 1 2 2 2 1 2 3 3 3 3 4 3 2 1 4 4 1 2 2 7 9 14 15 14 14 17 17 20 20 18 11 6 4 5 8 9 10
13 4 3 2 4 3 5 6 1 2 1 1 2 2 2 3 2 5 2 3 4 3 2 2 1 5 15 16 15 15 13 16 15 14 11 10 8 6 2 5 7 8 9 10
4 3 3 2 2 2 2 2 2 3 3 3 4 4 2 2 2 2 3 1 1 3 2 2 1 7 3 7 10 11 12 13 13 11 5 2 4 5 6 7 8 9 10 11
4 4 3 2 3 4 4 6 5 4 4 5 5 4 2 2 2 1 2 1 1 1 1 1 5 6 8 9 7 7 6 5 4 4 7 8 9 9 10 10 11 12 12 12
5 4 4 6 4 3 4 5 5 4 6 6 4 2 2 1 1 2 2 3 1 2 1 4 7 8 7 5 4 5 5 10 13 11 10 11 12 12 12 12 10 10 11 12
3 3 8 9 11 7 5 8 5 6 3 1 2 3 2 1 2 2 2 1 1 6 9 6 2 1 4 5 3 2 7 8 11 11 12 12 12 13 13 13 11 12 15 19

GFSNW_850_spd_030.txt.gz
Wind_Speed
34 30 29 29 33 31 29 18 4 18 19 5 1 4 5 3 2 3 3 4 3 5 3 4 3 4 1 2 1 3 1 5 2 2 2 2 2 3 5 4 3 1 3 5
34 31 30 33 35 35 27 13 7 15 17 4 1 2 2 3 2 3 2 3 2 3 4 5 2 3 1 1 2 6 5 1 3 6 5 4 2 3 4 5 3 5 5 5
34 31 31 35 37 36 19 13 3 4 5 4 8 5 3 2 1 3 4 4 4 4 4 6 5 3 1 1 3 5 4 3 5 7 4 2 4 4 4 5 3 4 6 4
33 31 33 37 39 36 17 7 3 7 3 2 4 4 4 4 2 3 4 4 3 5 4 3 3 2 2 3 3 3 3 4 2 1 3 1 2 5 6 7 5 6 5 7
31 31 34 39 40 35 14 8 6 6 4 18 6 3 5 6 3 3 2 5 1 2 5 6 8 6 4 4 3 3 3 2 1 2 4 5 3 5 6 5 3 7 3 9
30 31 35 40 40 36 12 7 10 11 0 3 6 6 6 7 7 3 2 6 5 4 1 5 11 8 11 7 5 3 3 5 3 4 4 5 6 9 11 6 5 7 7 9
28 30 34 40 40 36 18 11 12 6 2 3 6 7 3 5 4 7 3 6 5 10 28 27 22 25 22 19 13 5 5 4 3 2 3 2 6 2 4 9 5 8 2 4
26 28 33 38 39 35 21 11 8 5 2 3 3 7 6 13 9 5 4 3 8 24 6 5 5 5 6 5 7 7 4 5 3 4 3 6 5 5 7 8 7 8 7 4
25 27 32 35 37 36 21 11 8 4 13 5 7 6 7 5 4 3 4 9 28 2 5 4 4 4 4 2 1 5 5 6 4 3 3 6 6 3 4 4 5 9 15 12
24 27 29 31 36 36 22 9 9 4 7 6 11 4 8 9 6 4 6 9 3 2 3 3 3 3 2 3 5 3 3 3 5 2 3 8 7 3 4 5 7 9 19 21
24 26 27 31 33 31 22 8 9 5 7 8 7 8 10 10 9 5 11 6 1 4 4 3 3 3 5 2 4 6 7 6 4 3 2 7 8 4 7 6 5 15 20 22
23 23 25 29 31 26 24 12 11 11 8 10 12 11 9 8 9 13 19 6 6 8 4 1 3 2 2 2 3 1 2 6 5 9 6 5 15 7 13 4 6 15 20 19
21 22 22 24 24 24 24 19 14 12 19 12 8 9 10 9 9 10 9 6 8 8 6 9 3 3 4 4 5 3 4 6 3 2 4 11 18 22 29 14 16 14 14 20
20 19 21 21 21 19 19 16 14 11 10 6 4 7 7 6 6 9 6 7 14 13 8 5 3 3 8 3 3 3 4 7 4 5 12 16 21 19 19 25 23 18 16 16
19 18 17 19 18 17 17 17 13 11 4 6 8 9 7 6 6 6 5 8 13 8 5 3 3 5 4 2 2 3 10 7 4 6 17 9 13 15 10 12 16 17 16 17
18 18 19 18 18 17 17 7 8 9 10 6 2 3 4 7 7 9 11 10 7 5 4 3 5 4 4 4 3 14 14 19 20 13 14 16 16 15 17 16 13 14 16 15
16 16 16 15 15 14 6 6 10 10 8 4 4 3 3 5 6 5 4 4 3 2 3 2 3 3 3 3 4 6 12 16 18 18 17 16 16 14 11 11 14 14 14 17
14 14 13 13 12 12 12 12 11 10 6 4 4 2 2 3 2 2 1 2 3 4 2 2 3 4 2 3 6 14 13 12 10 11 11 14 14 9 11 12 15 20 23 17
14 14 13 12 8 5 9 10 8 6 4 5 3 4 3 2 3 2 2 2 3 1 1 1 3 1 3 5 19 20 17 13 15 13 7 7 6 10 12 16 23 20 17 13
15 15 5 5 8 14 11 4 3 3 4 4 4 3 1 2 2 3 2 4 1 1 1 1 2 1 4 18 14 13 14 11 11 4 5 9 15 17 20 19 17 17 11 2
12 4 5 14 14 5 3 4 5 4 4 4 3 3 3 2 2 2 3 2 1 2 3 2 1 2 6 13 15 15 14 11 11 6 10 12 17 20 19 17 11 6 4 4
7 11 15 9 3 4 5 2 2 3 2 2 2 3 3 3 2 5 2 2 1 3 2 1 1 2 9 15 20 21 21 23 26 23 21 19 18 16 14 8 2 3 6 8
11 4 4 3 4 5 3 4 1 2 2 2 3 2 2 3 2 5 2 3 3 4 1 1 2 7 8 8 14 17 18 19 19 20 20 15 11 8 5 5 6 7 8 10
5 4 4 2 2 2 1 1 3 3 4 7 7 4 3 2 3 1 2 1 1 3 2 1 1 1 8 8 11 11 12 10 8 8 6 4 3 3 5 7 8 10 10 12
5 4 3 3 4 4 6 8 6 5 6 6 6 5 3 3 2 2 3 2 1 2 3 0 3 8 13 11 7 9 9 9 9 8 7 7 8 9 9 10 10 11 11 12
4 4 3 5 5 3 4 8 7 5 7 7 4 2 2 1 2 2 2 3 3 2 3 8 9 8 7 5 5 3 4 8 8 9 10 11 12 12 12 12 11 10 12 14
4 4 9 7 10 7 5 6 4 6 2 1 2 3 3 2 2 1 1 3 3 11 12 8 5 3 2 3 2 1 3 5 8 9 10 10 10 10 10 12 13 16 18 21

GFSNW_850_spd_033.txt.gz
Wind_Speed
46 43 39 35 32 31 31 21 3 22 23 5 1 4 6 4 3 4 4 4 4 5 3 3 3 6 2 2 2 5 1 4 3 2 0 1 1 3 4 3 4 1 0 5
44 43 39 37 36 37 35 16 7 22 23 4 1 2 3 3 1 2 3 3 3 2 4 4 2 3 1 4 3 6 5 1 3 2 2 1 3 3 4 5 2 5 4 4
45 43 39 37 39 39 32 15 3 6 9 5 8 5 3 2 2 1 5 5 4 4 3 4 5 3 1 2 3 5 4 3 4 6 3 1 4 4 5 4 3 4 6 4
44 41 38 39 42 42 27 8 3 8 4 2 5 4 5 5 3 2 3 4 3 5 4 2 3 2 2 3 5 3 2 4 2 1 1 2 2 4 8 8 4 6 4 9
42 39 38 41 44 44 25 9 6 5 4 17 6 1 6 7 3 1 1 6 3 2 6 6 8 7 4 4 2 2 2 3 2 3 1 3 3 5 7 8 3 10 4 13
40 38 38 42 45 45 17 9 11 13 1 3 5 5 6 7 7 4 5 7 5 4 1 4 8 7 11 7 5 3 2 5 3 3 3 3 5 9 12 6 6 8 10 10
37 36 38 42 45 44 20 13 14 7 2 3 5 8 4 6 2 7 3 6 4 7 27 28 23 26 22 17 12 4 5 4 2 1 2 1 4 2 3 12 10 13 5 4
34 34 37 42 44 43 18 15 9 7 3 3 3 6 6 13 10 5 4 3 8 27 6 4 4 4 5 5 7 6 3 4 3 3 2 6 5 3 6 6 6 12 14 6
31 32 36 42 44 41 20 14 11 5 13 6 8 6 8 5 4 3 4 8 26 4 4 3 4 3 4 1 1 3 5 5 3 3 3 5 5 2 3 4 4 2 11 8
28 31 37 42 42 38 21 12 11 5 7 9 13 5 8 9 6 4 6 10 4 1 2 3 3 3 1 3 5 2 2 3 3 2 3 7 6 3 3 2 5 2 13 15
27 31 36 40 42 37 26 13 12 7 7 11 7 9 12 10 10 5 11 6 1 3 3 3 3 3 4 2 3 5 5 6 3 3 1 6 6 4 4 3 4 6 14 17
26 30 34 37 40 39 24 11 11 10 7 9 13 11 11 8 11 14 21 5 6 8 4 1 3 2 1 2 3 1 3 4 4 8 4 4 11 8 9 9 6 6 13 15
24 28 33 35 38 34 20 14 14 14 19 12 9 11 10 10 11 13 9 6 9 8 6 8 2 3 3 4 4 1 4 5 2 1 2 10 18 18 23 26 26 20 16 14
23 26 29 33 34 29 27 14 13 8 10 7 4 8 7 7 9 9 8 10 14 15 8 5 3 3 6 3 2 3 3 7 4 4 11 14 11 12 12 15 18 19 19 18
24 26 27 30 30 26 26 12 14 13 3 7 8 12 9 8 7 7 8 13 16 10 5 3 2 6 5 2 1 3 9 5 4 5 8 5 11 13 15 11 12 14 13 11
23 25 26 26 25 26 32 12 9 11 12 8 3 5 6 10 10 12 14 10 7 5 4 4 4 4 3 3 3 5 9 11 11 7 16 20 19 17 15 15 13 9 7 9
23 26 27 26 26 23 12 9 13 12 10 5 4 2 3 6 7 5 6 6 4 3 5 4 4 3 4 3 3 13 18 16 13 10 11 8 7 9 12 7 3 6 12 17
19 20 20 17 16 18 18 17 15 13 7 5 4 1 3 3 2 3 3 3 4 5 4 4 4 4 2 1 10 18 18 15 3 18 10 7 8 4 3 7 12 20 23 20
20 19 19 18 14 6 12 14 11 9 6 6 3 4 3 2 4 3 3 4 3 2 2 2 3 1 2 4 11 14 16 12 13 8 6 6 7 10 10 12 21 24 20 17
18 14 5 5 9 21 14 4 3 4 6 5 4 3 2 3 2 4 2 4 2 2 1 1 2 3 7 8 9 11 14 13 6 3 11 12 17 18 18 19 18 17 15 12
6 4 6 18 12 5 5 5 6 6 4 5 4 3 3 2 3 2 3 2 1 3 1 2 1 2 2 9 14 14 14 14 16 15 16 17 20 20 19 17 15 11 6 5
9 14 16 7 5 6 6 2 2 4 2 2 3 3 4 4 3 4 3 3 2 2 2 2 3 2 9 11 16 17 20 23 25 23 22 20 17 14 11 8 5 4 5 6
12 4 4 3 6 6 4 5 1 1 3 3 3 2 3 3 3 5 2 3 1 6 2 2 2 9 9 12 12 14 15 15 14 13 11 9 7 5 5 6 6 7 8 9
4 4 5 3 2 2 2 2 2 3 4 8 9 5 2 3 3 1 3 1 2 3 3 3 3 12 14 14 12 9 9 8 8 7 6 6 6 6 7 7 8 8 9 10
6 5 3 3 4 5 6 7 6 6 6 6 6 5 3 2 3 1 3 2 2 1 2 2 6 16 15 12 11 10 8 7 7 7 7 6 6 6 6 6 7 7 8 9
5 6 4 6 6 3 6 10 8 6 9 7 5 3 2 2 2 2 1 3 3 3 4 11 14 15 14 10 11 5 5 6 6 5 6 6 7 8 9 8 9 12 15 18
4 5 10 9 11 6 5 5 4 6 3 2 2 3 1 2 2 1 1 3 3 11 16 14 12 9 8 8 7 3 1 1 3 5 6 7 8 9 12 16 19 22 24 25

GFSNW_850_spd_036.txt.gz
Wind_Speed
40 32 38 41 39 35 31 19 9 21 28 14 14 12 9 5 8 6 6 7 7 12 11 7 8 10 2 5 5 5 2 1 4 6 3 1 3 6 9 4 4 1 2 3
51 47 27 40 43 42 38 21 11 23 31 12 10 7 5 5 6 9 9 7 6 5 9 6 5 6 2 3 5 7 7 3 4 5 5 5 7 9 5 4 1 6 3 2
48 42 29 44 44 43 34 21 7 8 14 11 16 13 12 8 3 5 5 5 4 7 6 1 7 8 2 3 2 3 4 3 7 10 2 0 6 11 12 11 4 5 9 10
48 26 40 48 46 46 29 19 8 15 12 11 13 15 15 11 7 4 7 4 8 8 5 6 6 6 6 3 6 3 3 6 4 2 0 3 5 8 13 16 14 8 12 11
42 31 41 46 46 51 27 16 8 10 22 17 13 11 11 15 6 5 7 8 10 7 5 7 10 10 7 5 7 5 2 3 3 3 3 3 7 10 11 15 16 15 19 20
28 40 44 45 48 54 23 21 17 23 8 10 11 11 11 14 11 3 3 12 8 6 4 5 9 8 9 6 7 6 4 6 4 2 2 3 6 16 18 13 13 15 14 16
31 41 42 44 51 46 22 18 19 14 6 10 12 12 9 14 7 7 4 5 4 6 20 21 19 19 15 12 10 3 5 5 2 1 1 3 1 1 3 13 17 15 17 13
38 40 42 44 52 42 22 19 16 9 4 13 10 12 7 11 9 6 7 5 5 22 5 4 4 2 2 5 7 5 1 4 3 2 4 6 12 3 3 4 6 5 11 11
37 39 41 44 52 42 18 19 13 12 11 9 15 13 16 7 5 5 5 9 19 4 2 2 4 4 3 4 4 3 4 3 1 3 3 3 3 3 1 2 5 7 4 4
36 37 39 44 52 43 16 17 13 9 7 7 12 12 12 7 6 5 8 11 3 2 2 2 2 3 1 5 5 4 2 1 4 3 4 6 1 2 3 3 3 7 4 7
34 35 39 46 51 41 20 19 15 11 6 8 8 10 9 8 10 6 12 7 2 2 2 2 3 2 4 3 2 4 5 6 3 3 3 4 5 6 3 4 6 6 5 6
32 34 38 44 46 35 23 16 15 12 7 6 10 11 14 14 12 11 19 1 7 8 4 1 3 2 1 1 3 3 3 3 1 6 1 3 7 6 4 6 11 10 8 7
31 35 39 45 48 31 22 16 16 13 11 9 6 5 9 11 13 15 8 6 8 7 7 6 2 3 3 4 4 3 4 4 3 1 2 7 9 10 11 11 15 14 14 13
30 34 38 43 47 28 17 16 15 13 9 6 4 7 7 7 12 12 11 12 16 16 8 4 3 3 4 2 1 2 3 8 4 4 10 7 2 5 7 13 12 12 10 10
30 34 38 41 43 27 16 18 11 8 3 6 7 11 9 8 9 6 8 16 16 9 5 3 2 5 4 1 0 1 1 3 2 2 7 5 9 12 13 12 12 11 8 6
29 33 36 38 37 29 20 15 14 9 12 7 4 5 6 12 13 14 15 13 8 5 5 4 4 2 2 3 4 4 6 5 6 6 14 11 10 6 11 8 8 6 7 8
33 35 37 37 34 25 19 8 13 12 9 5 4 3 3 7 9 7 8 7 5 4 5 4 3 2 4 3 3 7 9 8 4 8 10 1 11 7 10 10 12 11 15 16
32 31 29 25 29 23 18 10 15 11 6 5 4 2 3 3 3 3 4 3 4 7 4 4 3 3 2 2 6 8 10 11 2 10 7 6 8 10 12 12 12 19 23 22
30 28 27 27 19 11 15 17 14 9 4 5 3 4 3 3 4 4 4 3 3 3 2 2 3 2 1 2 5 7 10 8 3 8 11 12 13 14 15 19 21 23 19 18
26 19 9 5 9 24 16 4 3 3 6 6 4 2 3 2 2 3 2 3 2 2 2 3 2 2 4 2 2 4 6 7 9 7 11 14 18 20 20 20 18 15 12 9
12 5 5 18 13 4 3 4 5 3 3 5 4 3 4 3 2 2 2 2 1 3 3 3 3 3 4 6 7 8 9 12 16 19 20 20 20 17 15 12 8 5 2 4
10 16 15 6 4 4 6 2 2 4 2 2 3 4 4 3 3 4 2 3 1 3 4 2 4 4 11 14 14 16 17 18 17 16 15 12 9 7 5 4 5 6 6 6
12 6 5 6 7 6 2 4 1 2 2 3 4 3 3 3 4 5 2 3 2 8 2 2 2 15 15 13 14 12 10 11 10 9 8 7 6 6 5 5 6 6 7 8
6 5 5 4 2 3 2 3 3 3 4 9 10 5 3 3 3 1 3 2 3 4 4 3 6 19 17 13 11 10 9 9 8 8 7 6 5 4 4 5 6 7 7 9
5 4 3 3 3 4 5 8 6 6 7 7 7 6 3 3 2 1 3 4 3 1 2 4 13 17 16 14 11 10 9 8 7 6 5 4 4 3 3 4 5 6 9 12
5 6 4 5 5 3 6 9 8 6 7 7 5 2 2 2 2 3 2 3 2 3 3 9 17 17 19 16 11 9 8 7 5 4 2 2 2 2 3 5 9 13 17 19
4 5 10 11 11 6 5 6 5 6 3 2 2 2 2 2 2 3 0 2 3 11 14 14 13 15 16 15 12 8 7 5 3 2 2 1 3 5 7 11 15 18 20 21

GFSNW_850_spd_042.txt.gz
Wind_Speed
42 40 37 35 35 35 29 22 8 24 38 16 18 15 22 29 19 18 12 10 16 15 14 13 14 14 13 9 9 9 13 5 4 12 3 5 9 11 9 3 5 2 1 6
40 41 40 37 37 39 38 17 18 33 36 12 14 19 25 28 23 18 14 15 13 12 13 10 14 10 7 9 8 3 4 4 5 9 6 8 8 12 9 8 2 4 3 3
38 44 41 41 39 39 39 15 9 13 31 27 21 23 22 26 32 20 16 15 15 12 14 9 9 9 3 4 1 3 4 5 9 6 11 5 6 11 11 10 3 4 9 14
38 44 43 43 41 39 43 16 11 13 12 20 19 21 21 25 23 23 21 16 17 12 8 11 11 11 7 4 3 2 3 8 12 14 14 7 9 12 8 11 10 10 11 15
39 44 44 43 40 40 45 17 11 26 10 27 21 20 27 27 24 20 20 16 18 13 11 12 10 11 8 7 7 8 5 6 4 8 9 13 11 15 15 15 15 14 14 14
37 37 42 43 36 45 23 33 27 26 21 21 19 21 25 25 19 22 24 18 14 16 7 7 12 3 16 8 10 9 7 3 2 2 6 7 5 10 16 16 15 13 11 10
34 36 39 38 35 47 23 36 15 14 13 18 24 26 24 26 22 9 17 18 18 10 19 19 18 16 10 8 4 8 6 5 3 1 1 1 8 4 5 5 8 9 9 12
33 34 34 35 31 49 38 37 12 9 9 19 26 26 25 33 19 11 12 2 15 27 14 4 4 2 3 1 3 3 4 5 2 3 4 7 12 1 3 2 5 11 10 10
32 34 31 37 32 46 47 48 33 11 9 20 45 26 32 11 7 7 8 18 19 9 4 2 4 4 5 7 6 0 1 5 3 3 2 4 1 5 3 2 2 9 10 10
34 33 35 29 39 48 39 53 43 19 19 31 46 20 18 15 10 1 8 9 5 7 3 2 2 3 3 6 6 4 2 0 4 3 1 5 6 5 1 2 3 5 8 11
33 34 33 38 46 47 35 51 37 33 25 30 35 26 24 22 25 10 15 8 3 4 3 3 2 2 3 2 7 7 6 6 3 2 2 5 7 6 2 5 6 9 10 11
36 38 38 45 52 51 41 44 25 28 23 12 27 7 9 12 21 16 18 9 11 8 4 2 3 2 2 2 2 6 4 4 4 7 3 7 5 6 5 6 6 10 11 11
35 38 39 48 52 47 57 58 21 1 17 16 16 4 6 12 16 11 6 7 10 9 7 5 2 3 3 3 3 4 4 4 2 2 4 7 4 8 12 10 9 9 9 11
32 36 49 40 42 41 56 43 14 4 11 5 6 4 1 5 17 10 12 16 13 15 13 4 3 3 5 2 1 3 3 7 4 4 3 3 14 13 10 9 8 9 9 10
37 44 38 32 34 34 36 22 20 13 6 5 8 7 7 2 7 7 9 15 19 11 5 3 2 4 4 2 1 1 4 1 3 1 8 4 14 10 10 11 11 11 10 14
36 33 31 29 28 27 20 7 8 12 12 10 3 5 7 9 10 9 9 10 9 7 5 3 5 2 0 3 3 6 8 7 6 5 4 8 12 14 12 14 12 11 13 10
32 31 28 32 30 27 13 4 8 10 10 7 4 4 2 9 10 10 8 7 5 6 5 3 4 4 4 3 2 12 7 6 6 4 5 11 6 11 11 12 12 12 15 16
32 29 31 29 27 15 3 10 13 12 10 6 3 1 5 1 4 4 4 4 5 7 5 3 3 3 3 2 10 11 6 10 8 9 13 17 15 14 13 12 13 16 16 15
33 35 35 33 12 3 8 14 15 5 10 3 2 4 4 5 4 4 4 2 3 3 2 2 3 2 2 6 11 10 6 7 13 12 13 13 15 14 14 15 14 14 14 11
39 40 20 7 7 16 16 6 4 5 8 5 2 2 3 3 3 2 3 4 3 2 1 4 2 3 10 7 8 7 7 11 13 15 13 14 16 15 15 13 12 10 9 7
27 9 4 16 18 4 3 4 4 3 2 3 2 5 5 4 3 3 3 2 1 3 3 4 3 3 6 8 7 6 8 13 9 13 14 15 17 15 11 9 8 7 5 6
12 17 22 9 5 4 5 3 2 2 2 1 1 5 5 4 4 4 3 3 2 3 7 2 3 4 14 13 13 14 17 19 21 19 19 17 14 11 11 9 7 7 5 6
29 10 5 4 6 4 3 3 1 3 1 2 4 3 4 4 5 5 3 3 2 8 1 2 2 13 17 18 16 19 18 19 18 16 15 13 13 11 8 9 9 6 4 6
7 6 6 2 3 3 3 2 2 2 4 10 10 4 3 3 3 1 4 1 3 3 4 3 4 18 20 19 18 19 17 17 16 15 13 11 10 10 9 8 7 4 4 7
7 6 4 4 3 7 4 5 5 6 8 6 6 5 4 2 3 2 3 3 3 3 1 3 16 24 19 20 19 18 20 18 14 12 12 11 10 7 6 4 3 5 6 9
5 7 3 3 4 5 7 9 7 5 4 4 4 2 3 3 2 2 2 4 2 3 3 15 27 21 20 19 16 18 16 16 13 11 10 9 8 6 3 2 4 8 11 14
5 6 11 9 10 7 5 6 6 5 3 2 0 2 4 2 1 2 3 3 2 9 15 20 22 23 20 20 20 19 17 14 12 10 8 7 5 4 3 2 6 8 8 13

GFSNW_850_spd_045.txt.gz
Wind_Speed
41 41 47 38 36 33 34 26 9 22 34 13 9 15 10 10 22 21 13 6 3 7 9 7 8 7 9 15 13 9 8 4 4 9 18 15 6 6 6 5 4 3 5 5
42 45 46 43 40 42 42 17 16 29 41 11 13 9 15 26 15 18 6 6 3 2 5 6 6 6 5 2 5 6 3 2 4 1 9 8 4 6 4 3 4 4 5 5
46 43 46 47 45 45 44 16 7 15 34 27 20 17 15 23 20 21 25 13 7 5 5 4 7 3 2 6 6 6 5 0 5 6 6 3 3 4 5 4 4 4 5 5
47 44 47 48 48 48 45 15 12 18 12 21 14 18 14 20 18 22 18 11 9 7 5 4 5 5 3 4 3 3 4 3 1 4 5 5 2 1 4 6 6 6 9 8
41 44 49 50 50 48 50 12 12 22 3 24 17 19 21 26 21 15 20 16 9 9 6 7 6 8 5 5 1 5 2 2 3 1 5 7 4 7 6 7 6 3 2 4
40 43 46 47 54 51 28 25 26 30 11 17 16 22 23 24 16 17 29 12 6 8 8 8 4 14 18 12 9 7 6 4 3 2 4 6 6 7 6 6 4 3 2 4
39 42 44 51 52 53 31 32 12 10 11 13 22 22 20 24 25 16 15 25 8 10 23 23 19 21 19 16 7 6 6 6 3 3 3 2 9 2 5 7 7 8 8 7
33 36 47 53 50 47 46 28 17 5 5 15 17 25 26 26 29 17 12 3 8 25 13 4 4 5 6 1 3 3 4 5 2 4 4 4 7 1 2 4 4 6 8 8
37 42 46 50 50 45 39 40 20 7 3 12 31 23 26 14 10 3 3 3 16 20 3 4 5 5 6 5 3 8 7 5 5 2 4 6 6 3 5 3 1 7 13 9
38 35 38 46 46 42 32 48 34 14 6 11 33 24 23 22 5 5 3 4 5 8 3 2 3 3 8 5 9 4 3 3 5 3 2 7 5 6 2 6 5 9 13 13
33 33 35 38 39 37 31 45 38 15 6 18 9 35 22 16 18 6 9 7 2 4 2 4 2 3 4 4 8 8 6 6 3 3 2 5 9 5 6 6 14 15 14 13
34 32 34 34 33 37 34 31 40 29 20 11 10 19 22 30 32 26 18 12 11 17 4 3 4 2 2 3 2 2 2 6 6 7 6 6 20 25 22 20 18 14 13 8
33 30 35 28 35 29 36 36 26 24 15 27 24 4 14 26 23 26 17 11 19 6 9 5 3 3 4 3 3 3 2 4 4 5 1 11 22 23 18 15 15 12 10 6
30 30 30 33 33 26 33 39 35 24 8 3 8 9 21 33 37 36 28 16 14 19 17 6 3 3 5 4 4 4 5 5 6 4 13 22 19 18 17 15 14 11 8 9
29 28 26 30 27 26 31 30 43 40 20 3 10 20 15 18 21 20 21 22 26 16 6 4 2 5 5 2 3 1 1 4 4 4 9 17 13 19 15 14 16 11 7 10
30 30 26 26 25 29 19 9 32 39 35 9 4 7 12 10 11 16 6 11 13 9 7 3 4 3 4 3 3 2 17 18 13 7 16 23 21 15 11 13 12 11 11 14
30 30 33 28 35 36 33 12 5 10 15 6 3 1 5 9 15 21 20 10 9 7 6 4 4 3 4 3 3 11 18 18 18 21 26 20 11 12 12 14 15 16 19 20
27 29 31 29 25 31 42 17 2 8 7 9 4 1 3 4 5 4 6 5 5 9 5 3 3 3 3 3 8 20 19 20 16 13 9 21 22 17 18 17 19 22 23 22
32 30 28 28 28 16 13 14 15 18 9 6 3 4 3 2 5 4 5 6 4 3 2 2 4 1 2 5 16 18 20 13 26 22 23 24 22 22 19 21 22 21 18 16
41 32 14 4 6 16 5 4 4 7 8 7 2 2 2 4 3 3 3 2 3 2 2 3 3 2 10 15 18 15 17 22 19 28 24 23 24 23 21 19 19 17 13 9
20 4 5 20 18 7 5 5 5 4 4 4 3 2 3 3 3 3 2 2 0 3 3 4 1 2 4 10 11 14 13 14 12 15 20 22 25 25 21 17 13 12 11 10
7 19 22 10 4 3 6 3 3 4 2 2 3 5 4 4 4 4 2 3 2 2 5 3 3 1 16 14 13 13 17 19 22 22 23 21 20 19 16 15 15 13 12 11
27 7 5 3 6 6 4 2 2 2 2 1 3 3 3 4 5 6 2 4 1 7 3 3 2 12 17 18 23 25 28 28 28 27 24 22 20 15 14 17 13 11 10 8
6 6 6 4 4 4 3 2 2 2 3 12 13 5 3 3 3 1 4 0 2 3 3 3 4 17 23 21 24 29 27 24 22 19 18 17 16 17 16 13 10 7 6 5
8 8 5 4 3 6 4 5 4 5 7 9 7 5 3 1 3 2 3 2 3 3 3 2 15 23 22 24 26 26 25 22 17 19 18 16 15 14 15 11 8 5 4 4
7 9 4 4 3 4 7 9 9 5 6 4 3 2 3 3 3 2 2 5 3 2 2 15 25 21 24 27 26 24 20 17 18 18 17 15 12 11 10 8 4 2 4 7
5 5 11 8 10 6 4 4 5 5 3 1 2 4 2 1 2 2 3 2 2 8 14 21 23 29 26 23 24 19 20 18 18 18 16 13 12 10 6 4 5 2 5 8